This demonstration page uses our WeatherBlox Daily Observations layout. Learn more.

Hourly Observations for August 23, 2020

Temp ( °F °C ) Dew Point ( °F °C ) Humidity (%) Winds ( mph kmh ) Pressure ( in mb ) Visibility ( mi km ) Precip ( " mm )
12:51 am 00:51 Clear 83 28.3 56 13.3 40 40 E 6 9 29.76 1008 10 16.0934 0 0
1:51 am 01:51 Clear 79 26.1 58 14.4 49 49 W 5 7 29.77 1008 10 16.0934 0 0
2:51 am 02:51 Clear 78 25.6 56 13.3 47 47 NNW 7 11 29.78 1009 10 16.0934 0 0
3:51 am 03:51 Clear 77 25 55 12.8 47 47 Calm 29.78 1008 10 16.0934 0 0
4:51 am 04:51 Clear 75 23.9 54 12.2 48 48 Calm 29.78 1009 10 16.0934 0 0
5:51 am 05:51 Sunny 73 22.8 52 11.1 48 48 Calm 29.81 1010 10 16.0934 0 0
6:51 am 06:51 Sunny 75 23.9 54 12.2 48 48 Calm 29.84 1011 10 16.0934 0 0
7:51 am 07:51 Sunny 81 27.2 55 12.8 41 41 S 5 7 29.85 1011 10 16.0934 0 0
8:51 am 08:51 Sunny 85 29.4 56 13.3 37 37 SSE 6 9 29.85 1011 10 16.0934 0 0
9:51 am 09:51 Sunny 91 32.8 55 12.8 30 30 VRB 6 9 29.83 1010 10 16.0934 0 0
10:51 am 10:51 Sunny 94 34.4 55 12.8 27 27 WNW 10 17 29.8 1009 10 16.0934 0 0
11:51 am 11:51 Sunny 99 37.2 53 11.7 21 21 WNW 10 17 29.77 1008 10 16.0934 0 0
12:51 pm 12:51 Sunny 100 37.8 50 10 18 18 undefined N/A 29.74 1007 10 16.0934 0 0
1:51 pm 13:51 Sunny 102 38.9 49 9.4 17 17 undefined N/A 29.71 1006 10 16.0934 0 0
2:51 pm 14:51 Sunny 104 40 48 8.9 15 15 VRB 5 7 29.68 1005 10 16.0934 0 0
3:51 pm 15:51 Sunny 106 41.1 43 6.1 12 12 WNW 7 11 29.67 1005 10 16.0934 0 0
4:51 pm 16:51 Sunny 97 36.1 51 10.6 21 21 ENE 33 54 29.72 1006 7 11.26538 0 0
5:51 pm 17:51 Mostly Sunny 94 34.4 53 11.7 25 25 ENE 35 56 29.73 1007 10 16.0934 0 0
6:51 pm 18:51 Sunny 93 33.9 49 9.4 22 22 NE 22 35 29.72 1006 10 16.0934 0 0
7:51 pm 19:51 Clear 91 32.8 49 9.4 24 24 WSW 10 17 29.72 1006 10 16.0934 0 0
8:51 pm 20:51 Clear 87 30.6 49 9.4 27 27 N 7 11 29.75 1008 10 16.0934 0 0
9:51 pm 21:51 Clear 89 31.7 48 8.9 24 24 NE 7 11 29.73 1007 10 16.0934 0 0
10:51 pm 22:51 Clear 89 31.7 53 11.7 29 29 E 9 15 29.75 1008 10 16.0934 0 0
11:51 pm 23:51 Mostly Cloudy 89 31.7 50 10 26 26 E 8 13 29.79 1009 10 16.0934 0 0

Powered by AerisWeather